FW8022 Weather Reports


Display with metric or nautical units.
time (UTC)temp
F
wind
direction
speed
MPH
gust
MPH
rain 1hr
in
rain 24hr
in
rain mn
in
humidity
%
barometer
mb
20260508153538 52 269 2.0 7.0 0.00 0.00 0.00 90 1018.0
20260508153047 52 280 3.0 7.0 0.00 0.00 0.00 90 1018.0
20260508152537 52 298 2.0 7.0 0.00 0.00 0.00 90 1017.9
20260508152037 52 294 3.0 7.0 0.00 0.00 0.00 90 1017.9
20260508151545 52 280 3.0 8.0 0.00 0.00 0.00 91 1017.9
20260508151038 52 261 2.0 8.0 0.00 0.00 0.00 90 1017.9
20260508150537 52 321 4.0 8.0 0.00 0.00 0.00 90 1017.9
20260508150049 52 306 2.0 6.0 0.00 0.00 0.00 91 1017.9
20260508145538 52 286 1.0 7.0 0.00 0.00 0.00 91 1017.9
20260508145036 51 274 2.0 9.0 0.00 0.00 0.00 90 1017.9
20260508144543 51 236 2.0 9.0 0.00 0.00 0.00 90 1018.0
20260508144038 51 269 3.0 8.0 0.00 0.00 0.00 90 1017.9
20260508143538 51 271 4.0 8.0 0.00 0.00 0.00 90 1017.9
20260508143055 52 306 3.0 7.0 0.00 0.00 0.00 90 1017.9
20260508142538 51 285 2.0 11.0 0.00 0.00 0.00 90 1017.9
20260508142038 51 238 2.0 11.0 0.00 0.00 0.00 90 1017.9
20260508141550 51 312 3.0 9.0 0.00 0.00 0.00 90 1017.9
20260508141037 51 278 4.0 9.0 0.00 0.00 0.00 90 1017.9
20260508140539 52 277 3.0 8.0 0.00 0.00 0.00 90 1017.9
20260508140049 51 281 3.0 8.0 0.00 0.00 0.00 90 1017.8
20260508135538 51 294 3.0 10.0 0.00 0.00 0.00 90 1017.8
20260508135038 51 280 3.0 10.0 0.00 0.00 0.00 90 1017.8
20260508134546 51 298 3.0 9.0 0.00 0.00 0.00 90 1017.8
20260508134037 51 263 4.0 9.0 0.00 0.00 0.00 90 1017.7
20260508133538 51 236 3.0 8.0 0.00 0.00 0.00 90 1017.6
20260508133050 51 284 3.0 7.0 0.00 0.00 0.00 90 1017.5
20260508132539 51 264 3.0 8.0 0.00 0.00 0.00 90 1017.5
20260508132037 51 294 3.0 8.0 0.00 0.00 0.00 90 1017.5
20260508131544 51 279 3.0 7.0 0.00 0.00 0.00 89 1017.5
20260508131038 51 286 2.0 10.0 0.00 0.00 0.00 89 1017.5
20260508130540 51 261 3.0 10.0 0.00 0.00 0.00 89 1017.5
20260508130049 52 285 3.0 10.0 0.00 0.00 0.00 89 1017.5
20260508125538 52 325 2.0 7.0 0.00 0.00 0.00 89 1017.5
20260508125038 51 283 3.0 10.0 0.00 0.00 0.00 89 1017.5
20260508124549 51 287 3.0 10.0 0.00 0.00 0.00 89 1017.5
20260508124038 51 288 4.0 10.0 0.00 0.00 0.00 89 1017.5
20260508123538 51 263 3.0 10.0 0.00 0.00 0.00 89 1017.5
20260508123043 52 303 3.0 10.0 0.00 0.00 0.00 89 1017.4
20260508122537 52 274 2.0 9.0 0.00 0.00 0.00 89 1017.4
20260508122037 51 281 3.0 8.0 0.00 0.00 0.00 89 1017.4
20260508121544 52 315 3.0 7.0 0.00 0.00 0.00 89 1017.3
20260508121038 51 277 3.0 8.0 0.00 0.00 0.00 89 1017.4
20260508120537 52 297 3.0 9.0 0.00 0.00 0.00 89 1017.4
20260508120055 52 276 4.0 9.0 0.00 0.00 0.00 90 1017.4
20260508115538 52 303 3.0 9.0 0.00 0.00 0.00 90 1017.4
20260508115038 51 234 2.0 9.0 0.00 0.00 0.00 89 1017.4
20260508114603 52 255 3.0 9.0 0.00 0.00 0.00 90 1017.4
20260508114038 52 288 3.0 9.0 0.00 0.00 0.00 89 1017.4
20260508113538 52 299 3.0 10.0 0.00 0.00 0.00 90 1017.4
20260508113046 52 313 3.0 10.0 0.00 0.00 0.00 90 1017.4
20260508112541 52 286 3.0 10.0 0.00 0.00 0.00 90 1017.5
20260508112037 52 269 3.0 10.0 0.00 0.00 0.00 90 1017.5
20260508111558 52 279 4.0 10.0 0.00 0.00 0.00 90 1017.6
20260508111039 52 270 3.0 7.0 0.00 0.00 0.00 90 1017.6
20260508110538 52 254 3.0 8.0 0.00 0.00 0.00 89 1017.5
20260508110044 52 250 4.0 8.0 0.00 0.00 0.00 90 1017.5
20260508105538 52 250 2.0 7.0 0.00 0.00 0.00 90 1017.4
20260508105038 52 292 2.0 10.0 0.00 0.00 0.00 90 1017.4
20260508104551 52 260 3.0 10.0 0.00 0.00 0.00 90 1017.3
20260508104037 52 318 3.0 9.0 0.00 0.00 0.00 90 1017.5
20260508103537 52 239 3.0 9.0 0.00 0.00 0.00 90 1017.4
20260508103047 52 285 2.0 10.0 0.00 0.00 0.00 90 1017.4
20260508102538 52 245 2.0 10.0 0.00 0.00 0.00 90 1017.5
20260508102038 52 286 4.0 10.0 0.00 0.00 0.00 90 1017.6
20260508101547 52 284 2.0 9.0 0.00 0.00 0.00 90 1017.5
20260508101037 52 290 3.0 7.0 0.00 0.00 0.00 90 1017.5
20260508100537 52 250 2.0 7.0 0.00 0.00 0.00 90 1017.4
20260508100044 52 271 3.0 7.0 0.00 0.00 0.00 90 1017.5
20260508095538 52 288 1.0 7.0 0.00 0.00 0.00 90 1017.5
20260508095038 52 280 2.0 7.0 0.00 0.00 0.00 90 1017.5
20260508094555 52 288 3.0 10.0 0.00 0.00 0.00 90 1017.5
20260508094037 52 265 2.0 10.0 0.00 0.00 0.00 89 1017.5
20260508093537 52 259 3.0 8.0 0.00 0.00 0.00 89 1017.4
20260508093056 52 283 3.0 8.0 0.00 0.00 0.00 89 1017.5
20260508092538 52 284 2.0 7.0 0.00 0.00 0.00 90 1017.5
20260508092035 52 282 2.0 8.0 0.00 0.00 0.00 89 1017.6
20260508091550 52 281 3.0 8.0 0.00 0.00 0.00 89 1017.6
20260508091038 52 276 2.0 8.0 0.00 0.00 0.00 89 1017.5
20260508090536 51 285 3.0 9.0 0.00 0.00 0.00 89 1017.4
20260508090047 52 272 3.0 9.0 0.00 0.00 0.00 89 1017.4
20260508085537 52 244 3.0 9.0 0.00 0.00 0.00 90 1017.4
20260508085037 52 266 1.0 7.0 0.00 0.00 0.00 89 1017.4
20260508084545 52 256 2.0 7.0 0.00 0.00 0.00 89 1017.4
20260508084039 52 246 1.0 4.0 0.00 0.00 0.00 89 1017.5
20260508083538 52 305 2.0 6.0 0.00 0.00 0.00 89 1017.4
20260508083049 52 269 2.0 8.0 0.00 0.00 0.00 89 1017.5
20260508082538 52 253 2.0 8.0 0.00 0.00 0.00 89 1017.5
20260508082037 52 288 3.0 6.0 0.00 0.00 0.00 89 1017.5
20260508081548 52 299 1.0 7.0 0.00 0.00 0.00 90 1017.5
20260508081038 52 297 2.0 7.0 0.00 0.00 0.00 89 1017.5
20260508080537 52 262 2.0 8.0 0.00 0.00 0.00 89 1017.5
20260508080047 52 277 2.0 8.0 0.00 0.00 0.00 89 1017.6
20260508075540 52 270 2.0 8.0 0.00 0.00 0.00 89 1017.7
20260508075037 52 273 3.0 8.0 0.00 0.00 0.00 89 1017.6
20260508074547 52 298 3.0 9.0 0.00 0.00 0.00 90 1017.6
20260508074038 52 275 2.0 11.0 0.00 0.00 0.00 90 1017.6
20260508073537 52 286 4.0 11.0 0.00 0.00 0.00 89 1017.5
20260508073048 52 298 3.0 7.0 0.00 0.00 0.00 90 1017.5
20260508072537 52 277 2.0 7.0 0.00 0.00 0.00 90 1017.4
20260508072037 52 238 2.0 7.0 0.00 0.00 0.00 90 1017.4
20260508071545 52 254 3.0 7.0 0.00 0.00 0.00 90 1017.4
20260508071038 52 240 3.0 11.0 0.00 0.00 0.00 90 1017.5
20260508070538 52 267 4.0 11.0 0.00 0.00 0.00 90 1017.4
20260508070049 52 294 3.0 10.0 0.00 0.00 0.00 90 1017.6
20260508065537 52 294 3.0 10.0 0.00 0.00 0.00 90 1017.5
20260508065036 52 236 4.0 9.0 0.00 0.00 0.00 90 1017.5
20260508064548 52 296 2.0 10.0 0.00 0.00 0.00 90 1017.6
20260508064037 52 259 4.0 10.0 0.00 0.00 0.00 90 1017.6
20260508063538 52 285 4.0 9.0 0.00 0.00 0.00 90 1017.6
20260508063041 52 308 3.0 10.0 0.00 0.00 0.00 91 1017.6
20260508062537 52 281 2.0 10.0 0.00 0.00 0.00 91 1017.6
20260508062037 52 272 3.0 9.0 0.00 0.00 0.00 91 1017.7
20260508061544 52 296 4.0 8.0 0.00 0.00 0.00 91 1017.6
20260508061042 52 253 3.0 8.0 0.00 0.00 0.00 91 1017.6
20260508060538 52 295 4.0 8.0 0.00 0.00 0.00 91 1017.6
20260508060052 52 288 4.0 10.0 0.00 0.00 0.00 91 1017.6
20260508055537 52 300 3.0 10.0 0.00 0.00 0.00 91 1017.7
20260508055037 52 297 4.0 10.0 0.00 0.00 0.00 91 1017.6
20260508054549 52 312 2.0 7.0 0.00 0.00 0.00 91 1017.6
20260508054037 52 262 2.0 8.0 0.00 0.00 0.00 91 1017.4
20260508053537 52 298 3.0 8.0 0.00 0.00 0.00 91 1017.5
20260508053056 52 282 2.0 9.0 0.00 0.00 0.00 91 1017.5
20260508052537 52 273 2.0 9.0 0.00 0.00 0.00 91 1017.5
20260508052037 52 264 3.0 9.0 0.00 0.00 0.00 91 1017.5
20260508051550 52 271 3.0 10.0 0.00 0.00 0.00 91 1017.6
20260508051038 52 229 2.0 10.0 0.00 0.00 0.00 92 1017.5
20260508050537 52 292 2.0 10.0 0.00 0.00 0.00 92 1017.5
20260508050043 52 240 2.0 9.0 0.00 0.00 0.00 92 1017.5
20260508045537 52 261 3.0 9.0 0.00 0.00 0.00 92 1017.4
20260508045037 52 272 3.0 8.0 0.00 0.00 0.00 92 1017.4
20260508044542 52 286 2.0 5.0 0.00 0.00 0.00 92 1017.3
20260508044037 52 237 2.0 6.0 0.00 0.00 0.00 92 1017.3
20260508043537 52 265 2.0 7.0 0.00 0.00 0.00 92 1017.3
20260508043049 52 293 2.0 7.0 0.00 0.00 0.00 92 1017.3
20260508042537 52 296 2.0 6.0 0.00 0.00 0.00 92 1017.2
20260508042037 52 295 2.0 6.0 0.00 0.00 0.00 92 1017.1
20260508041547 52 277 2.0 6.0 0.00 0.00 0.00 92 1017.1
20260508041037 52 254 2.0 6.0 0.00 0.00 0.00 92 1017.2
20260508040537 52 248 2.0 6.0 0.00 0.00 0.00 92 1017.1
20260508040046 52 242 2.0 8.0 0.00 0.00 0.00 92 1017.1
20260508035536 52 325 2.0 9.0 0.00 0.00 0.00 92 1017.1
20260508035038 52 316 2.0 10.0 0.00 0.00 0.00 92 1017.0
20260508034549 52 304 3.0 10.0 0.00 0.00 0.00 91 1016.9
20260508034037 53 274 3.0 7.0 0.00 0.00 0.00 92 1016.7
20260508033537 52 280 2.0 7.0 0.00 0.00 0.00 91 1016.8
20260508033044 52 315 2.0 7.0 0.00 0.00 0.00 91 1016.8
20260508032538 52 244 2.0 6.0 0.00 0.00 0.00 91 1016.7
20260508032037 52 240 2.0 7.0 0.00 0.00 0.00 91 1016.6
20260508031542 52 248 3.0 7.0 0.00 0.00 0.00 91 1016.5
20260508031037 52 299 3.0 7.0 0.00 0.00 0.00 91 1016.5
20260508030537 52 294 3.0 7.0 0.00 0.00 0.00 91 1016.5
20260508030049 53 274 2.0 10.0 0.00 0.00 0.00 91 1016.4
20260508025536 53 238 3.0 10.0 0.00 0.00 0.00 91 1016.2
20260508025037 53 281 2.0 7.0 0.00 0.00 0.00 91 1016.2
20260508024554 53 218 3.0 7.0 0.00 0.00 0.00 91 1016.2
20260508024037 53 273 2.0 6.0 0.00 0.00 0.00 91 1016.2
20260508023537 53 246 2.0 7.0 0.00 0.00 0.00 91 1016.2
20260508023045 53 238 3.0 7.0 0.00 0.00 0.00 90 1016.2
20260508022536 53 270 2.0 8.0 0.00 0.00 0.00 90 1016.2
20260508022037 53 275 1.0 10.0 0.00 0.00 0.00 90 1016.2
20260508021545 53 343 3.0 10.0 0.00 0.00 0.00 90 1016.2
20260508021036 53 289 3.0 7.0 0.00 0.00 0.00 90 1016.3
20260508020536 54 271 3.0 6.0 0.00 0.00 0.00 90 1016.3
20260508020043 54 282 1.0 8.0 0.00 0.00 0.00 90 1016.3
20260508015540 54 235 2.0 8.0 0.00 0.00 0.00 90 1016.3
20260508015037 54 246 3.0 8.0 0.00 0.00 0.00 90 1016.2
20260508014542 54 281 2.0 6.0 0.00 0.00 0.00 90 1016.2
20260508014041 54 284 3.0 8.0 0.00 0.00 0.00 90 1016.3
20260508013537 54 292 3.0 8.0 0.00 0.00 0.00 89 1016.3
20260508013042 54 250 3.0 7.0 0.00 0.00 0.00 90 1016.4
20260508012540 54 255 2.0 7.0 0.00 0.00 0.00 90 1016.4
20260508012037 54 273 3.0 8.0 0.00 0.00 0.00 89 1016.4
20260508011557 54 258 3.0 8.0 0.00 0.00 0.00 89 1016.4
20260508011037 54 253 3.0 8.0 0.00 0.00 0.00 89 1016.5
20260508010537 54 286 2.0 9.0 0.00 0.00 0.00 89 1016.5
20260508010045 54 315 4.0 9.0 0.00 0.00 0.00 89 1016.5
20260508005536 54 288 3.0 7.0 0.00 0.00 0.00 89 1016.5
20260508005041 54 280 2.0 6.0 0.00 0.00 0.00 89 1016.6
20260508004550 54 272 3.0 8.0 0.00 0.00 0.00 89 1016.7
20260508004036 54 292 3.0 10.0 0.00 0.00 0.00 89 1016.7
20260508003536 54 250 3.0 10.0 0.00 0.00 0.00 89 1016.7
20260508003045 54 307 2.0 8.0 0.00 0.00 0.00 89 1016.8
20260508002537 54 294 2.0 9.0 0.00 0.00 0.00 89 1016.8
20260508002037 54 309 2.0 9.0 0.00 0.00 0.00 88 1016.8
20260508001544 54 281 3.0 9.0 0.00 0.00 0.00 88 1016.8
20260508001037 54 261 2.0 10.0 0.00 0.00 0.00 88 1016.8
20260508000538 54 123 3.0 10.0 0.00 0.00 0.00 88 1016.8
20260508000049 55 292 2.0 10.0 0.00 0.00 0.00 88 1016.8
20260507235537 54 221 4.0 10.0 0.00 0.00 0.00 88 1016.9
20260507235037 54 221 3.0 8.0 0.00 0.00 0.00 88 1016.8
20260507234552 54 263 3.0 8.0 0.00 0.00 0.00 88 1016.9
20260507234038 54 282 3.0 8.0 0.00 0.00 0.00 88 1017.0
20260507233537 54 257 2.0 8.0 0.00 0.00 0.00 88 1017.1
20260507233045 54 246 2.0 9.0 0.00 0.00 0.00 88 1017.0
20260507232537 54 261 3.0 10.0 0.00 0.00 0.00 88 1017.2
20260507232037 54 280 3.0 10.0 0.00 0.00 0.00 88 1017.2
20260507231549 54 298 3.0 10.0 0.00 0.00 0.00 88 1017.2
20260507231036 54 236 3.0 11.0 0.00 0.00 0.00 88 1017.3
20260507230537 54 232 3.0 11.0 0.00 0.00 0.00 87 1017.3
20260507230044 55 304 4.0 9.0 0.00 0.00 0.00 87 1017.3
20260507225536 55 198 3.0 7.0 0.00 0.00 0.00 87 1017.3
20260507225037 55 284 2.0 9.0 0.00 0.00 0.00 87 1017.4
20260507224544 55 254 3.0 9.0 0.00 0.00 0.00 87 1017.3
20260507224039 55 281 4.0 9.0 0.00 0.00 0.00 87 1017.3
20260507223540 55 281 3.0 8.0 0.00 0.00 0.00 86 1017.3
20260507223055 56 248 2.0 9.0 0.00 0.00 0.00 86 1017.3
20260507222538 55 333 3.0 9.0 0.00 0.00 0.00 86 1017.2
20260507222041 56 246 3.0 9.0 0.00 0.00 0.00 87 1017.3
20260507221547 55 285 3.0 7.0 0.00 0.00 0.00 86 1017.4
20260507221038 56 275 2.0 7.0 0.00 0.00 0.00 86 1017.4
20260507220538 56 265 3.0 8.0 0.00 0.00 0.00 87 1017.4
20260507220055 56 292 3.0 8.0 0.00 0.00 0.00 87 1017.5
20260507215539 56 255 3.0 7.0 0.00 0.00 0.00 87 1017.5
20260507215038 55 271 2.0 6.0 0.00 0.00 0.00 87 1017.5
20260507214549 56 250 2.0 6.0 0.00 0.00 0.00 87 1017.5
20260507214038 55 263 2.0 7.0 0.00 0.00 0.00 88 1017.6
20260507213539 55 253 2.0 7.0 0.00 0.00 0.00 87 1017.6
20260507213051 55 275 2.0 7.0 0.00 0.00 0.00 88 1017.7
20260507212538 55 302 3.0 7.0 0.00 0.00 0.00 87 1017.7
20260507212038 56 304 2.0 7.0 0.00 0.00 0.00 88 1017.7
20260507211552 55 274 2.0 7.0 0.00 0.00 0.00 88 1017.8
20260507211039 55 277 3.0 7.0 0.00 0.00 0.00 88 1017.9
20260507210540 55 281 2.0 7.0 0.00 0.00 0.00 89 1017.9
20260507210050 55 281 2.0 7.0 0.00 0.00 0.00 89 1017.9
20260507205538 55 273 2.0 6.0 0.00 0.00 0.00 89 1017.9
20260507205040 55 250 2.0 5.0 0.00 0.00 0.00 89 1018.0
20260507204551 55 306 2.0 4.0 0.00 0.00 0.00 89 1018.0
20260507204040 55 273 2.0 5.0 0.00 0.00 0.00 89 1018.1
20260507203539 55 294 2.0 6.0 0.00 0.00 0.00 89 1018.1
20260507203045 55 292 2.0 6.0 0.00 0.00 0.00 89 1018.1
20260507202538 55 254 3.0 6.0 0.00 0.00 0.00 89 1018.1
20260507202038 55 229 2.0 5.0 0.00 0.00 0.00 89 1018.1
20260507201547 55 260 2.0 7.0 0.00 0.00 0.00 89 1018.2
20260507201039 55 279 2.0 7.0 0.00 0.00 0.00 90 1018.1
20260507200544 55 255 3.0 7.0 0.00 0.00 0.00 89 1018.1
20260507200056 55 284 2.0 7.0 0.00 0.00 0.00 89 1018.2
20260507195539 55 277 2.0 6.0 0.00 0.00 0.00 89 1018.2
20260507195040 54 311 2.0 6.0 0.00 0.00 0.00 89 1018.2
20260507194547 55 283 2.0 6.0 0.00 0.00 0.00 90 1018.4
20260507194041 54 263 2.0 6.0 0.00 0.00 0.00 90 1018.4
20260507193539 54 246 2.0 5.0 0.00 0.00 0.00 90 1018.4
20260507193053 54 237 2.0 5.0 0.00 0.00 0.00 90 1018.4
20260507192541 54 238 1.0 6.0 0.00 0.00 0.00 90 1018.4
20260507192040 54 286 2.0 6.0 0.00 0.00 0.00 89 1018.4
20260507191546 54 281 2.0 6.0 0.00 0.00 0.00 89 1018.5
20260507191038 54 280 2.0 4.0 0.00 0.00 0.00 89 1018.5
20260507190539 54 273 2.0 7.0 0.00 0.00 0.00 89 1018.5
20260507190051 54 293 2.0 7.0 0.00 0.00 0.00 90 1018.5
20260507185538 54 315 2.0 7.0 0.00 0.00 0.00 90 1018.5
20260507185038 54 271 2.0 6.0 0.00 0.00 0.00 89 1018.5
20260507184544 54 279 2.0 6.0 0.00 0.00 0.00 90 1018.6
20260507184039 54 323 2.0 6.0 0.00 0.00 0.00 89 1018.6
20260507183538 54 284 2.0 7.0 0.00 0.00 0.00 90 1018.6
20260507183049 53 291 2.0 7.0 0.00 0.00 0.00 90 1018.6
20260507182538 53 286 2.0 6.0 0.00 0.00 0.00 90 1018.7
20260507182037 54 294 2.0 6.0 0.00 0.00 0.00 89 1018.7
20260507181550 54 243 2.0 5.0 0.00 0.00 0.00 89 1018.7
20260507181039 54 275 2.0 6.0 0.00 0.00 0.00 89 1018.8
20260507180537 54 290 2.0 6.0 0.00 0.00 0.00 89 1018.8
20260507180050 54 300 2.0 6.0 0.00 0.00 0.00 89 1018.7
20260507175538 54 303 2.0 6.0 0.00 0.00 0.00 89 1018.7
20260507175039 54 273 2.0 6.0 0.00 0.00 0.00 89 1018.7
20260507174557 53 240 2.0 6.0 0.00 0.00 0.00 89 1018.6
20260507174038 53 296 2.0 4.0 0.00 0.00 0.00 89 1018.7
20260507173538 54 311 1.0 6.0 0.00 0.00 0.00 89 1018.6
20260507173046 53 299 2.0 6.0 0.00 0.00 0.00 89 1018.7
20260507172540 53 279 2.0 4.0 0.00 0.00 0.00 89 1018.6
20260507172040 53 282 1.0 6.0 0.00 0.00 0.00 89 1018.7
20260507171555 53 265 2.0 6.0 0.00 0.00 0.00 89 1018.7
20260507171038 53 281 1.0 4.0 0.00 0.00 0.00 89 1018.7
20260507170539 53 268 1.0 4.0 0.00 0.00 0.00 89 1018.6
20260507170053 53 305 1.0 4.0 0.00 0.00 0.00 89 1018.6
20260507165538 53 295 2.0 4.0 0.00 0.00 0.00 89 1018.6
20260507165038 53 324 1.0 4.0 0.00 0.00 0.00 89 1018.4
20260507164551 53 313 1.0 4.0 0.00 0.00 0.00 89 1018.4
20260507164038 53 327 2.0 4.0 0.00 0.00 0.00 89 1018.4
20260507163535 53 276 2.0 4.0 0.00 0.00 0.00 88 1018.4
20260507163047 53 298 1.0 5.0 0.00 0.00 0.00 89 1018.4
20260507162536 53 332 2.0 6.0 0.00 0.00 0.00 89 1018.4
20260507162037 53 325 3.0 6.0 0.00 0.00 0.00 89 1018.4
20260507161545 53 287 1.0 4.0 0.00 0.00 0.00 89 1018.4
20260507161036 53 316 1.0 4.0 0.00 0.00 0.00 89 1018.4
20260507160537 53 262 1.0 6.0 0.00 0.00 0.00 89 1018.3
20260507160047 53 248 1.0 7.0 0.00 0.00 0.00 89 1018.3
20260507155536 53 277 2.0 7.0 0.00 0.00 0.00 90 1018.3
20260507155036 53 284 0.0 3.0 0.00 0.00 0.00 90 1018.3
20260507154544 52 281 0.0 6.0 0.00 0.00 0.00 90 1018.3
20260507154037 52 284 2.0 6.0 0.00 0.00 0.00 89 1018.3